Location: Baia Mare
(47.6567°N, 23.5850°E)
Time: 10:14:02
(UTC+02:00)

ISS - Visible Passes

Search period start: 29 January 2022 00:00
Search period end: 08 February 2022 00:00
Orbit: 413 x 422 km, 51.6° (Epoch: 29 January)

Date Brightness Start Highest point End Pass type
(mag) Time Alt. Az. Time Alt. Az. Time Alt. Az.
29 Jan -3.1 18:31:28 10° WNW 18:34:40 42° N 18:36:23 22° ENE visible
29 Jan -1.0 20:08:16 10° WNW 20:09:19 19° WNW 20:09:19 19° WNW visible
30 Jan -3.8 19:20:08 10° WNW 19:23:17 73° NNW 19:23:17 73° NNW visible
31 Jan -3.6 18:31:57 10° WNW 18:35:16 58° NNE 18:37:17 21° E visible
31 Jan -1.1 20:08:51 10° WNW 20:10:13 20° W 20:10:13 20° W visible
01 Feb -3.2 19:20:31 10° WNW 19:23:47 53° SSW 19:24:17 47° S visible
02 Feb -3.7 18:32:14 10° WNW 18:35:34 79° SSW 18:38:27 13° ESE visible
02 Feb -0.9 20:09:50 10° W 20:11:24 15° SW 20:11:24 15° SW visible
03 Feb -1.6 19:21:02 10° W 19:23:45 24° SW 19:25:42 15° S visible
04 Feb -2.3 18:32:27 10° WNW 18:35:33 36° SW 18:38:38 10° SSE visible
05 Feb -0.4 19:23:04 10° SW 19:23:23 10° SW 19:23:41 10° SW visible
06 Feb -0.8 18:33:01 10° W 18:35:11 16° SW 18:37:20 10° S visible
